STARLINK-36364, 67978

Orbit data source: Space-Track

STARLINK-36364, 67978 is a payload satellite owned by SpaceX/Seattle (US) in SSO that was launched on Wed, 25 Feb 2026 UTC via an FALCON 9 launch vehicle from the Air Force Western Test Range (AFWTR). Payload-class satellites include a variety of spacecraft equipped with specific instruments for various scientific and technological missions. These include communications satellites like Starlink; space stations such as the ISS; scientific satellites like the Hubble; Earth observation satellites from companies like Planet Labs, Umbra, and HawkEye 360; GPS; miniature CubeSats for education and research; and military/defense satellites.

Loading next visibility...
Identifier
67978, 2026-038T
Orbit
SSO
Country
Flag of USUS
Related business
Manufacturer
SpaceX/Seattle
Mission
Operational Commercial Communications
Bus & Motor
STARLINK V2MO, Unknown motor
Mass
575 kg wet, ~530 kg dry
Launch date (UTC)
2026-02-25 (4 months ago)
Launch vehicle
FALCON 9
Launch site
Air Force Western Test Range (AFWTR)
Object type
Payload
Rocket body
Debris
Shape & HBR
Box + 2 Pan, 17.7 m
Radar Cross Section
36.964 m², Large (>1 m²)

Expand to show TLE details & history
Last TLE update: 22 hours ago

TLE from 22 hours ago
0 STARLINK-36364
1 67978U 26038T   26170.94653809  .00024654  00000-0  76288-3 0  9991
2 67978  97.2854 180.6637 0000633 124.0118 236.1185 15.33471187 18919
Epoch: 2026-06-19T22:43Z
TLE epoch observation values (Epoch: 2026-06-19T22:43:00.890Z)
Latitude
-0.00005°
Longitude
-68.25822°
Altitude
468.819 km
Speed
7.632 km/s
True Right ascension
12h 02m 39s
True Declination
0° 00' 00"
Sunlit
Object was in daylight at epoch
Visualization orbit readout
Latitude
Unknown
Longitude
Unknown
Altitude
Unknown
Speed
Unknown
Apparent Right ascension
Unknown
Apparent Declination
Unknown
Sunlit
N/A
Visualization observer readout
Local Sidereal Time
07:13:25
Azimuth
Unknown
Elevation
Unknown
Doppler factor
Unknown
Orbital elements
Apogee altitude
462.841 km
Perigee altitude
461.975 km
Semi-major axis
6,840.545 km
Eccentricity
0.00006
Inclination
97.2854°
RAAN
180.6637°
Arg. of periapsis
124.0118°
True anomaly
236.11248°
Mean anomaly
236.1185°
Eccentric anomaly
236.11549°
Mean motion
3.83625 °/min
Orbital period
93.84 mins
BSTAR
0.00076288
Loading maneuver chart data...
Computing Atmospheric mass density...
Loading historical data...
Loading historical data...
Loading historical data...
Loading historical data...
Loading historical data...
Loading historical data...
Loading historical data...

Documentation

Showing up to 5 results
|